Dewpoint
-6 -6 -6 -6 -6 -5 -4 -4 -5 -5 -6 -8 -12 -19 -25 -26 -26 -25 -23 -20 -19 -17 -15 -13 -13 -13 -9 -1 2 3 4 4 3 4 3 3 4 3 3 3 3 4 4 4 3 3 3 3 4 5 6 6
-6 -6 -5 -5 -5 -5 -4 -4 -5 -6 -8 -12 -19 -25 -27 -26 -26 -24 -22 -20 -17 -15 -14 -13 -14 -12 -9 -2 2 3 4 3 3 3 3 3 3 3 3 3 4 4 4 3 4 5 5 4 5 6 7 8
-6 -5 -5 -5 -5 -5 -4 -5 -6 -8 -11 -18 -24 -27 -27 -26 -26 -23 -20 -19 -17 -16 -15 -15 -13 -11 -8 -3 1 3 3 3 2 3 3 3 3 2 3 4 4 4 4 4 4 5 6 6 6 7 7 8
-5 -5 -5 -5 -5 -5 -5 -6 -9 -12 -18 -24 -27 -28 -28 -26 -24 -23 -21 -18 -18 -17 -16 -15 -14 -10 -6 -3 -0 2 2 2 2 2 3 3 3 3 3 4 4 4 5 5 5 5 6 7 7 7 7 7
-5 -5 -5 -4 -4 -5 -8 -12 -17 -21 -25 -27 -27 -27 -26 -25 -23 -21 -20 -19 -18 -17 -17 -15 -13 -8 -4 -3 -2 1 1 2 1 2 3 3 3 3 4 4 4 4 4 5 5 5 6 7 7 7 7 7
-5 -4 -4 -4 -5 -8 -14 -21 -25 -27 -27 -26 -26 -25 -24 -23 -22 -21 -19 -19 -17 -17 -16 -14 -12 -9 -7 -5 -2 0 2 1 1 2 2 3 3 3 3 4 4 4 4 5 6 5 6 7 7 7 8 8
-5 -4 -4 -5 -8 -15 -23 -26 -26 -27 -25 -26 -24 -23 -23 -22 -21 -20 -19 -19 -17 -17 -16 -15 -13 -11 -10 -7 -5 -2 0 0 1 1 1 2 3 3 3 3 3 4 4 4 5 6 5 6 7 7 7 8
-4 -4 -5 -8 -14 -22 -26 -26 -26 -26 -26 -25 -25 -24 -23 -22 -21 -20 -19 -19 -18 -18 -17 -17 -15 -13 -11 -9 -9 -5 -3 -2 -0 0 -1 1 2 2 2 2 3 3 4 4 4 5 6 6 6 7 7 7
-4 -5 -7 -13 -21 -26 -26 -26 -26 -26 -27 -26 -25 -25 -24 -23 -22 -21 -21 -20 -20 -19 -19 -18 -17 -16 -14 -11 -9 -6 -5 -5 -4 -3 -1 2 1 2 2 2 2 3 4 4 4 5 5 6 6 6 6 6
-4 -7 -12 -20 -25 -26 -26 -26 -27 -26 -26 -26 -26 -25 -25 -25 -24 -24 -24 -23 -23 -22 -22 -20 -19 -18 -17 -14 -11 -8 -6 -7 -9 -6 -1 1 1 1 2 2 2 3 3 4 4 4 4 5 5 6 6 6
-6 -12 -19 -25 -26 -26 -27 -27 -26 -26 -26 -26 -25 -25 -25 -25 -25 -25 -25 -25 -24 -24 -25 -24 -22 -21 -20 -18 -16 -13 -9 -8 -10 -8 -4 -1 1 1 1 2 2 2 3 3 3 4 4 4 4 5 5 5
-12 -19 -25 -26 -26 -26 -27 -26 -26 -26 -25 -24 -24 -24 -24 -24 -24 -24 -24 -24 -23 -24 -24 -23 -24 -23 -21 -21 -19 -17 -15 -11 -10 -8 -6 -4 -2 -1 0 -0 0 2 2 3 3 3 3 3 4 4 4 5
-20 -24 -25 -25 -25 -26 -26 -26 -26 -25 -25 -24 -24 -24 -24 -24 -24 -23 -23 -23 -22 -22 -22 -22 -22 -22 -22 -23 -21 -20 -19 -17 -14 -10 -7 -4 -4 -2 -1 -1 -0 2 2 2 2 2 3 3 3 3 4 4
-24 -25 -26 -26 -25 -26 -26 -26 -26 -25 -24 -25 -25 -25 -25 -24 -24 -23 -23 -22 -23 -22 -22 -22 -22 -22 -22 -22 -22 -22 -21 -20 -19 -16 -12 -8 -5 -3 -1 -1 -0 1 1 2 2 2 2 2 2 2 3 3
-24 -26 -25 -25 -25 -25 -25 -25 -25 -24 -25 -25 -24 -25 -24 -24 -24 -23 -23 -23 -23 -22 -22 -22 -22 -22 -22 -22 -22 -22 -22 -21 -21 -20 -18 -14 -10 -7 -4 -1 -1 0 1 1 1 1 2 2 2 2 2 2
-23 -24 -23 -24 -24 -24 -24 -24 -24 -24 -24 -24 -24 -24 -24 -24 -23 -23 -23 -23 -23 -22 -22 -22 -22 -22 -22 -22 -22 -21 -21 -21 -21 -20 -19 -18 -15 -13 -8 -3 -2 -1 0 0 0 1 1 1 1 1 1 2
-22 -22 -23 -23 -23 -23 -24 -23 -23 -22 -21 -21 -21 -21 -22 -23 -23 -23 -23 -23 -23 -23 -22 -22 -22 -22 -22 -21 -21 -21 -21 -20 -20 -20 -20 -19 -18 -17 -13 -8 -6 -4 -2 -1 -1 -1 -0 -1 -0 0 0 1
-21 -21 -22 -23 -23 -23 -23 -22 -20 -19 -18 -18 -18 -19 -21 -21 -22 -22 -23 -22 -23 -22 -22 -22 -22 -22 -22 -21 -21 -21 -20 -20 -20 -19 -19 -19 -19 -18 -16 -14 -11 -8 -5 -3 -2 -2 -1 -2 -1 -1 -0 -0
-21 -21 -22 -23 -23 -23 -21 -18 -17 -17 -16 -16 -17 -19 -20 -21 -22 -22 -22 -23 -22 -23 -22 -22 -22 -22 -22 -21 -20 -20 -20 -20 -19 -19 -19 -19 -19 -18 -16 -15 -12 -8 -6 -4 -2 -2 -2 -2 -2 -1 -1 -1
-21 -22 -22 -22 -23 -22 -20 -17 -16 -16 -15 -16 -17 -18 -19 -20 -21 -21 -22 -22 -22 -22 -22 -23 -22 -22 -21 -21 -20 -20 -20 -20 -19 -18 -18 -18 -18 -18 -17 -15 -13 -9 -6 -4 -3 -2 -2 -3 -2 -2 -1 -1
-21 -22 -22 -22 -22 -21 -19 -17 -16 -16 -16 -17 -17 -17 -18 -18 -20 -21 -21 -21 -22 -22 -22 -23 -22 -22 -21 -21 -21 -20 -19 -19 -19 -19 -18 -18 -17 -17 -16 -15 -13 -9 -6 -4 -3 -3 -3 -3 -3 -2 -2 -2
-21 -22 -22 -21 -21 -20 -19 -17 -16 -16 -16 -17 -16 -16 -17 -18 -19 -20 -20 -20 -21 -21 -22 -22 -22 -22 -22 -21 -21 -20 -19 -19 -18 -19 -18 -17 -16 -16 -16 -14 -13 -10 -7 -5 -4 -3 -3 -3 -3 -3 -3 -3
-21 -22 -22 -21 -21 -20 -19 -18 -17 -16 -16 -16 -15 -15 -16 -17 -18 -19 -19 -19 -19 -20 -20 -21 -21 -22 -22 -22 -22 -20 -19 -19 -18 -18 -18 -17 -16 -15 -14 -13 -12 -11 -9 -6 -5 -4 -4 -3 -3 -3 -3 -3
-21 -21 -21 -21 -20 -20 -19 -18 -18 -16 -15 -15 -14 -14 -15 -16 -18 -18 -18 -18 -18 -18 -18 -19 -20 -20 -21 -22 -21 -21 -21 -20 -19 -18 -17 -16 -15 -14 -13 -12 -11 -10 -9 -8 -6 -5 -4 -4 -4 -4 -4 -4
-20 -20 -21 -21 -20 -20 -19 -18 -17 -17 -16 -16 -15 -14 -15 -16 -17 -17 -17 -16 -16 -16 -17 -17 -18 -19 -20 -21 -21 -21 -20 -19 -18 -17 -16 -15 -15 -14 -13 -12 -11 -10 -9 -8 -7 -7 -5 -4 -4 -5 -5 -4
-18 -19 -19 -19 -20 -20 -19 -17 -17 -17 -16 -16 -15 -15 -15 -16 -16 -16 -15 -15 -15 -15 -15 -16 -17 -18 -19 -20 -20 -20 -19 -18 -17 -16 -16 -15 -14 -13 -13 -12 -11 -10 -9 -9 -8 -7 -7 -5 -5 -6 -5 -5
-17 -17 -17 -18 -19 -19 -19 -18 -17 -17 -17 -16 -16 -16 -16 -16 -16 -15 -15 -14 -14 -14 -14 -15 -16 -17 -18 -19 -20 -20 -20 -19 -17 -16 -16 -15 -14 -13 -12 -11 -11 -11 -10 -9 -9 -8 -7 -6 -6 -6 -5 -6
-16 -17 -16 -16 -17 -18 -19 -19 -18 -18 -17 -16 -16 -16 -16 -16 -15 -14 -14 -14 -13 -13 -13 -14 -16 -17 -18 -19 -20 -20 -20 -20 -18 -17 -16 -15 -14 -13 -12 -11 -11 -11 -11 -11 -10 -9 -8 -8 -7 -6 -6 -8
-15 -16 -16 -16 -17 -17 -18 -19 -19 -18 -17 -17 -17 -16 -16 -15 -15 -14 -14 -13 -13 -13 -13 -14 -15 -17 -18 -19 -19 -20 -20 -20 -18 -17 -16 -15 -14 -14 -13 -12 -11 -11 -11 -11 -11 -10 -10 -9 -8 -8 -9 -9
-14 -15 -15 -15 -16 -16 -17 -18 -19 -19 -18 -17 -16 -16 -16 -15 -14 -14 -13 -13 -13 -13 -13 -13 -15 -16 -18 -19 -19 -20 -20 -19 -18 -17 -16 -15 -14 -13 -13 -13 -12 -11 -11 -11 -11 -11 -10 -10 -10 -9 -9 -9
-13 -14 -14 -15 -15 -16 -17 -18 -18 -19 -18 -18 -16 -16 -16 -15 -14 -13 -13 -13 -13 -13 -13 -13 -14 -16 -18 -19 -19 -20 -19 -19 -19 -17 -16 -15 -14 -14 -13 -13 -12 -12 -11 -11 -11 -11 -11 -11 -10 -10 -10 -9
Wind_Speed
25 27 29 30 30 30 29 29 29 30 32 33 34 34 34 33 32 31 30 29 28 28 27 27 27 26 25 20 19 19 19 21 20 20 20 20 20 20 21 22 22 21 21 22 21 22 22 21 20 19 20 22
27 28 30 31 31 30 29 29 30 31 32 34 34 34 33 32 31 30 29 29 28 28 27 28 27 27 25 20 19 18 18 19 20 20 21 21 22 23 23 22 21 22 24 24 21 20 22 20 19 17 16 18
28 30 31 31 31 30 29 30 31 32 33 34 34 34 33 32 31 29 29 28 27 27 27 28 27 27 25 21 19 18 19 20 20 20 21 22 24 24 23 21 21 22 23 26 22 19 21 19 18 17 15 16
29 30 31 30 29 29 28 29 29 30 31 31 31 31 31 30 29 28 27 27 27 27 27 27 27 26 24 22 20 20 21 21 21 20 19 21 22 23 22 20 22 22 20 24 24 18 17 17 17 18 16 14
28 29 29 28 28 27 27 27 28 28 28 28 28 28 28 27 27 27 27 26 27 27 27 27 27 26 23 22 21 22 21 20 20 18 18 20 20 20 21 20 21 22 18 19 22 17 15 17 16 15 16 12
28 28 27 27 26 26 26 26 27 27 28 28 27 27 27 27 26 27 27 27 27 27 27 26 26 25 23 22 21 21 20 20 21 19 18 19 19 19 18 19 19 20 19 17 19 17 15 16 13 12 14 9
27 26 26 26 25 25 26 26 27 27 27 27 27 27 27 27 27 26 26 27 27 27 26 25 25 25 24 22 21 21 20 21 21 20 19 17 18 19 18 18 19 19 19 16 16 16 13 15 13 11 11 9
25 25 25 25 24 25 26 26 26 27 27 27 27 27 27 27 27 26 26 26 26 26 26 26 26 26 25 24 23 22 21 21 20 21 21 18 18 18 18 18 18 18 17 16 15 16 13 12 13 10 9 8
25 24 24 24 24 25 25 25 26 26 26 26 26 26 27 26 26 26 26 26 26 26 26 26 26 27 26 26 25 24 24 24 22 22 20 19 19 19 20 19 18 17 17 16 15 15 15 12 10 9 8 6
24 24 23 24 24 24 24 25 25 25 25 26 27 26 26 26 25 25 26 26 26 26 26 26 26 27 27 27 26 25 25 26 24 21 19 18 19 20 20 19 19 19 16 16 15 13 14 14 12 9 8 7
22 22 23 23 23 23 24 25 25 25 26 27 27 26 26 26 26 26 26 26 26 27 27 27 27 27 27 27 27 26 26 26 24 22 19 17 17 18 18 18 19 19 16 14 14 12 12 14 14 12 10 9
20 20 21 21 22 22 23 24 24 25 26 26 27 26 26 26 26 26 26 26 27 27 27 28 28 27 27 27 27 27 26 26 25 24 21 18 17 17 17 18 18 18 16 13 14 14 13 13 14 14 12 11
18 19 20 20 21 22 23 23 24 25 26 26 27 27 27 27 27 27 27 27 27 27 27 27 27 27 27 27 27 27 26 25 25 24 23 21 19 18 18 17 16 16 16 15 16 17 16 15 13 13 13 12
18 19 19 20 20 21 22 23 24 25 25 26 26 26 27 28 28 28 28 28 28 27 27 27 27 27 27 27 27 27 26 26 25 24 24 22 22 20 19 17 15 15 15 15 17 17 17 16 15 14 14 13
17 18 18 18 19 20 20 22 23 24 24 25 25 26 27 27 28 28 28 28 28 28 28 28 28 27 27 26 26 26 26 26 26 25 24 23 22 21 18 16 14 14 15 15 16 15 15 15 15 15 14 13
15 16 16 16 17 18 20 21 22 23 24 25 25 26 27 27 27 28 28 28 28 29 29 28 28 28 27 26 26 26 26 26 26 25 25 23 22 20 17 15 14 13 14 14 15 15 15 15 15 15 13 12
14 14 14 16 17 18 19 20 22 23 24 25 26 27 27 27 28 28 28 28 29 29 29 29 28 28 28 27 26 26 25 25 25 25 24 23 22 20 17 15 14 13 13 13 14 14 15 15 14 14 13 12
12 12 14 15 17 18 18 20 22 23 24 25 26 27 27 27 28 28 28 29 29 29 29 29 28 28 28 28 27 27 26 25 25 25 24 23 22 21 19 16 15 13 12 11 12 13 13 13 13 12 12 13
11 11 12 14 16 17 18 19 21 22 23 24 25 26 26 27 28 29 29 30 29 29 29 29 28 28 28 28 28 28 27 26 25 25 25 24 22 21 19 17 15 13 11 10 10 11 12 12 11 10 11 12
11 11 11 13 14 15 16 18 19 21 22 24 24 25 26 27 28 29 30 30 30 30 29 29 29 29 29 28 28 28 27 27 25 24 24 24 23 21 19 18 15 12 11 9 8 10 11 11 10 11 11 12
11 10 11 12 13 14 15 17 18 19 21 22 23 24 26 27 28 29 30 30 30 30 30 30 30 29 29 28 28 28 27 27 26 25 23 23 23 21 20 18 16 12 10 9 8 9 10 11 11 12 13 14
11 11 11 11 12 13 14 16 17 18 19 20 22 24 25 27 28 28 29 30 30 30 31 31 30 30 29 28 28 27 27 26 26 26 24 23 22 21 20 18 16 13 10 9 8 8 10 11 13 14 14 15
12 11 12 12 12 13 14 15 15 16 17 19 21 23 24 26 26 27 28 29 29 30 30 30 30 30 30 29 28 27 26 25 25 25 24 23 21 21 20 18 16 14 11 9 8 9 10 11 13 15 16 16
12 11 12 13 13 13 14 14 14 14 16 17 19 21 23 24 25 26 27 27 28 29 30 30 30 30 30 30 29 28 27 27 26 25 25 24 22 20 18 17 16 14 11 10 10 10 10 12 14 16 16 17
13 12 12 13 14 14 14 14 14 14 15 15 17 20 21 22 23 24 25 26 27 28 29 30 30 30 30 30 29 29 28 27 27 26 25 24 23 21 18 16 15 14 12 11 11 11 11 12 14 15 15 16
14 13 13 14 15 15 15 15 15 14 14 15 16 18 20 20 21 22 24 25 26 27 28 29 30 30 30 30 29 29 27 26 25 24 23 23 23 22 20 17 15 14 13 11 11 12 12 11 11 13 13 13
15 15 15 15 15 16 16 17 16 15 15 15 16 17 18 19 20 21 22 24 25 26 28 29 30 31 31 30 30 28 27 26 24 23 22 22 22 21 20 19 17 15 13 13 12 11 11 10 11 11 10 12
16 16 16 16 16 16 16 17 17 16 16 16 16 17 17 18 19 20 21 23 24 26 27 29 30 31 31 31 30 29 28 27 25 24 23 22 22 21 20 19 18 17 15 15 14 12 10 10 9 7 9 15
17 17 17 17 16 16 16 16 17 17 17 16 15 16 16 17 18 19 21 22 24 26 27 29 31 32 31 30 29 28 28 27 26 24 23 21 21 21 20 20 19 18 17 16 15 13 11 8 6 8 13 16
17 18 18 17 17 17 17 16 16 16 16 16 15 16 16 17 18 19 20 22 24 26 27 29 31 31 31 30 29 28 28 27 26 24 22 21 20 20 20 20 19 18 17 16 15 14 13 10 9 13 15 13
16 17 18 18 18 18 18 17 17 16 16 16 16 17 17 17 17 18 20 22 23 26 27 29 30 31 31 30 28 27 27 27 26 25 23 22 20 19 19 19 18 18 17 16 15 14 14 13 12 14 14 12
Wind_Direction
348 348 348 346 343 342 341 341 341 342 342 341 341 341 341 340 339 338 336 334 333 331 329 328 328 326 323 330 335 336 337 331 335 338 335 337 335 331 329 330 330 324 315 310 310 312 309 305 303 301 295 289
350 350 349 347 346 344 343 343 343 343 342 342 342 342 342 341 341 340 338 337 336 334 333 332 331 329 327 332 336 337 335 329 335 339 339 340 333 330 330 330 330 324 319 313 310 319 318 315 316 313 308 301
349 349 349 348 347 345 344 344 343 343 342 342 342 342 342 342 342 341 341 340 339 337 335 335 335 333 332 336 339 338 333 324 326 334 337 336 331 331 331 331 330 327 330 326 319 323 323 323 323 319 316 309
347 348 349 348 347 346 345 343 342 342 342 342 342 342 342 342 343 343 343 343 342 341 339 339 338 338 338 338 338 336 331 324 324 332 333 329 330 335 334 332 326 323 329 331 327 325 326 326 320 318 316 311
346 348 349 348 347 346 344 343 342 342 343 344 345 345 345 345 346 346 346 346 346 345 344 344 343 343 342 340 338 335 333 332 335 336 330 326 327 328 332 334 328 324 324 329 333 330 329 325 319 319 313 303
346 348 348 347 347 345 344 344 345 346 348 349 350 351 351 352 351 351 350 349 349 350 350 349 347 346 344 344 341 337 337 338 340 338 332 332 329 323 324 328 329 331 329 328 333 331 328 325 322 321 306 288
346 348 348 348 346 345 346 347 349 351 352 353 354 356 357 357 357 356 355 354 353 353 353 352 352 350 349 349 345 341 341 342 343 339 338 335 329 327 326 326 328 335 337 332 331 332 329 322 322 321 302 289
347 348 348 348 347 348 349 351 353 355 356 356 358 360 0 1 0 360 359 358 357 356 355 355 354 354 353 352 351 350 346 346 341 336 343 342 333 331 329 330 334 337 341 339 335 335 337 324 317 320 310 298
348 349 349 348 349 351 353 354 356 358 358 359 1 2 2 2 1 1 0 360 359 358 358 357 356 355 354 352 352 351 347 346 339 337 348 348 341 338 334 334 336 337 338 339 337 332 335 334 324 319 319 321
349 349 349 350 352 354 355 357 359 359 0 3 3 2 2 2 1 1 1 0 360 359 358 358 357 356 355 353 350 348 346 346 344 345 349 345 343 343 343 343 340 340 338 335 336 330 328 333 336 328 316 317
349 349 350 353 355 356 358 1 1 1 3 4 3 2 1 1 1 1 1 0 360 359 358 358 357 356 355 353 351 348 346 344 346 348 349 344 341 340 342 344 340 341 342 340 340 338 330 323 328 335 330 322
351 351 354 356 357 360 3 3 2 4 5 4 1 0 360 360 360 360 359 358 358 357 357 356 355 355 354 353 351 349 346 343 343 344 346 344 340 337 336 336 337 338 340 343 340 340 340 330 324 327 331 332
354 355 359 360 1 4 5 4 5 6 5 3 0 359 359 359 358 357 356 355 355 355 354 353 352 352 351 351 351 349 347 344 343 341 339 338 336 335 335 338 340 337 335 337 336 333 335 335 331 326 326 327
356 359 1 1 4 6 5 5 6 7 5 3 1 0 0 359 357 356 355 354 353 353 352 351 350 350 350 350 349 348 347 346 345 343 339 335 333 333 335 338 341 336 333 333 332 331 330 329 330 328 327 324
358 360 0 2 7 7 7 8 9 9 7 5 4 3 2 360 358 356 354 354 353 352 352 351 351 350 350 349 348 347 347 346 346 345 343 339 335 334 333 332 333 331 331 330 328 332 335 333 333 330 326 324
1 1 1 4 9 10 10 11 12 11 8 6 5 4 2 360 358 356 354 354 353 352 352 351 351 350 349 348 348 347 347 347 346 345 344 342 338 335 332 326 322 318 320 323 323 327 330 330 333 331 329 329
5 4 3 6 10 13 14 14 14 12 9 7 6 4 2 360 358 356 355 355 354 353 352 351 351 350 349 349 349 348 348 347 345 345 344 344 341 337 333 323 316 312 310 313 316 319 320 321 325 325 330 334
8 7 5 6 10 14 16 16 16 12 9 6 5 3 1 359 358 358 358 358 356 355 353 352 351 350 350 350 350 349 348 348 346 346 344 344 343 340 338 331 325 320 315 314 316 318 318 320 321 318 320 323
9 8 6 6 9 14 15 16 15 11 8 6 5 3 1 1 1 1 1 360 359 357 355 353 353 352 352 351 351 350 349 349 348 347 344 344 345 343 341 338 331 324 322 320 318 317 317 321 321 316 316 316
6 5 4 6 8 12 13 14 13 10 8 7 5 3 3 4 4 4 3 1 1 360 358 356 356 355 354 353 351 350 349 349 348 348 346 345 346 346 343 341 336 328 327 325 320 318 318 321 319 313 315 314
0 358 359 2 5 7 8 11 10 8 8 7 5 4 5 6 6 6 4 3 2 2 1 359 358 357 355 354 352 350 349 349 348 348 349 348 347 348 345 342 339 335 326 319 316 314 313 314 312 307 309 310
353 351 350 354 359 1 3 6 5 5 8 7 5 5 6 6 7 6 5 4 4 4 3 1 359 358 356 355 353 351 350 349 348 348 350 351 349 349 347 344 341 337 324 313 309 304 304 306 307 308 309 310
345 345 344 346 351 356 358 359 358 360 6 7 5 6 6 6 7 6 5 5 5 5 4 2 0 358 357 356 354 352 350 349 349 348 349 351 351 350 348 346 343 340 329 316 306 297 296 299 303 307 308 309
338 338 338 340 343 348 349 350 349 354 3 6 6 6 5 6 6 6 6 6 6 5 5 4 2 360 358 356 355 353 351 350 350 350 349 350 351 351 350 347 344 343 335 322 314 307 298 295 299 303 304 307
331 331 332 334 337 339 338 340 343 347 357 4 7 6 5 5 6 6 6 5 5 5 5 4 2 0 358 356 355 354 353 352 352 351 350 349 348 349 350 350 349 347 341 331 323 315 305 299 299 304 306 307
325 326 328 329 332 335 333 333 337 341 349 359 6 6 3 4 4 5 6 4 4 4 4 3 1 360 358 357 356 354 354 353 352 351 350 348 347 347 349 351 353 352 348 341 332 323 317 310 306 311 314 313
322 322 324 326 328 332 331 330 332 337 342 353 4 3 360 2 2 2 4 3 3 3 2 2 1 359 358 357 355 353 353 352 352 352 351 350 349 348 349 350 351 352 352 349 343 333 323 314 311 313 315 319
319 319 319 321 323 327 329 328 329 332 336 346 358 357 355 359 358 360 3 2 2 2 1 1 360 359 358 356 355 353 351 351 352 353 353 352 350 348 348 347 348 350 352 349 346 344 331 317 316 313 314 321
317 316 315 317 319 322 325 326 327 329 332 340 349 348 349 354 354 357 0 0 1 0 0 360 359 358 357 355 354 352 351 350 351 353 353 352 351 350 349 348 347 348 349 347 346 348 344 334 322 314 322 327
315 312 312 314 315 318 321 322 324 325 328 332 339 341 344 349 352 355 357 358 359 359 359 358 358 357 355 354 353 353 352 350 350 351 352 353 353 351 350 348 347 346 345 345 344 345 343 339 325 318 327 333
313 310 309 310 311 314 316 318 319 322 324 327 333 337 339 343 348 351 354 355 355 356 356 356 356 355 354 353 353 352 352 350 349 349 350 352 352 352 350 349 347 345 344 344 343 341 338 335 331 328 331 331
Height
1576 1575 1573 1571 1569 1567 1566 1564 1562 1561 1559 1557 1555 1552 1550 1548 1546 1544 1542 1540 1538 1536 1535 1533 1531 1530 1528 1527 1526 1525 1523 1521 1519 1517 1515 1513 1512 1510 1508 1506 1505 1503 1502 1500 1499 1498 1497 1496 1495 1495 1494 1493
1576 1574 1572 1570 1569 1567 1565 1563 1561 1560 1557 1555 1553 1551 1549 1547 1545 1543 1541 1539 1537 1535 1533 1532 1530 1528 1527 1526 1525 1523 1522 1520 1518 1516 1514 1512 1510 1508 1506 1505 1504 1502 1500 1498 1497 1497 1496 1494 1494 1493 1493 1492
1575 1573 1571 1570 1568 1566 1564 1562 1561 1559 1556 1554 1552 1550 1548 1546 1544 1542 1541 1539 1537 1535 1533 1531 1529 1527 1525 1524 1523 1522 1521 1518 1517 1515 1514 1512 1509 1508 1506 1505 1503 1502 1500 1498 1496 1496 1495 1494 1493 1492 1492 1491
1574 1573 1571 1569 1568 1566 1564 1562 1561 1559 1557 1554 1552 1550 1548 1546 1544 1542 1540 1538 1536 1534 1532 1530 1528 1526 1524 1523 1522 1521 1519 1517 1516 1515 1513 1511 1509 1508 1506 1505 1503 1501 1500 1498 1496 1495 1495 1494 1493 1491 1490 1490
1574 1572 1571 1569 1567 1566 1564 1562 1560 1558 1556 1554 1552 1550 1548 1546 1544 1542 1540 1538 1536 1534 1532 1530 1528 1526 1524 1523 1521 1520 1519 1517 1515 1514 1512 1511 1509 1507 1506 1504 1503 1501 1499 1498 1496 1495 1494 1493 1492 1491 1490 1489
1574 1572 1570 1569 1567 1565 1563 1562 1560 1558 1556 1554 1552 1550 1548 1546 1544 1542 1540 1537 1535 1533 1531 1529 1528 1526 1524 1523 1521 1520 1518 1516 1515 1513 1512 1510 1509 1507 1505 1504 1502 1500 1499 1498 1496 1495 1494 1493 1491 1490 1489 1488
1573 1572 1570 1568 1566 1565 1563 1561 1559 1557 1555 1554 1552 1550 1548 1546 1544 1542 1540 1538 1536 1534 1532 1530 1528 1526 1524 1522 1521 1519 1518 1516 1514 1513 1511 1510 1508 1507 1505 1504 1502 1500 1499 1497 1496 1495 1493 1493 1491 1490 1489 1487
1572 1571 1569 1568 1566 1564 1563 1561 1559 1557 1555 1554 1552 1550 1548 1546 1544 1542 1540 1538 1537 1535 1533 1531 1528 1526 1524 1522 1520 1519 1517 1515 1514 1512 1511 1509 1508 1506 1505 1503 1502 1500 1499 1497 1496 1494 1493 1492 1491 1490 1489 1487
1572 1570 1569 1567 1566 1564 1562 1561 1559 1557 1556 1554 1552 1550 1548 1546 1545 1543 1541 1539 1537 1535 1533 1531 1529 1526 1524 1522 1520 1518 1517 1515 1513 1511 1510 1509 1507 1506 1504 1503 1501 1500 1499 1497 1496 1495 1493 1492 1491 1489 1489 1487
1571 1569 1568 1567 1565 1564 1562 1561 1559 1558 1556 1554 1552 1551 1549 1547 1546 1544 1542 1539 1537 1535 1533 1531 1529 1527 1525 1522 1520 1518 1516 1514 1512 1511 1509 1508 1507 1506 1504 1502 1501 1500 1498 1497 1495 1494 1493 1492 1491 1489 1488 1487
1571 1569 1568 1567 1565 1564 1562 1561 1559 1558 1556 1554 1553 1551 1550 1548 1546 1544 1542 1540 1538 1536 1533 1531 1529 1527 1525 1523 1521 1519 1517 1515 1512 1511 1509 1508 1507 1506 1504 1503 1501 1500 1498 1497 1495 1494 1493 1492 1491 1489 1488 1487
1571 1570 1568 1567 1566 1564 1562 1561 1559 1557 1556 1554 1553 1551 1550 1548 1546 1544 1542 1540 1538 1536 1534 1532 1530 1528 1526 1523 1521 1519 1517 1515 1513 1511 1509 1508 1507 1506 1504 1503 1501 1500 1498 1497 1496 1494 1493 1492 1491 1489 1488 1487
1571 1570 1569 1567 1566 1564 1562 1561 1559 1558 1556 1555 1553 1552 1550 1548 1546 1544 1542 1540 1538 1536 1534 1532 1530 1528 1526 1524 1522 1520 1517 1515 1513 1511 1509 1508 1506 1505 1504 1503 1502 1500 1499 1497 1495 1494 1493 1492 1490 1489 1488 1487
1571 1570 1569 1567 1566 1564 1563 1561 1560 1558 1557 1555 1554 1552 1550 1548 1546 1544 1542 1540 1538 1537 1535 1532 1530 1528 1526 1524 1522 1520 1518 1515 1513 1511 1509 1507 1506 1504 1503 1502 1502 1500 1499 1497 1496 1494 1493 1491 1490 1489 1488 1487
1571 1570 1569 1568 1566 1565 1564 1562 1561 1559 1557 1556 1554 1552 1550 1548 1547 1545 1543 1541 1539 1537 1535 1533 1530 1528 1526 1524 1522 1520 1518 1516 1514 1511 1509 1507 1505 1504 1503 1502 1501 1500 1499 1497 1496 1494 1493 1491 1490 1489 1488 1487
1572 1570 1569 1568 1567 1566 1564 1562 1561 1559 1558 1556 1554 1553 1551 1549 1547 1545 1543 1541 1539 1537 1535 1533 1531 1528 1526 1524 1522 1520 1518 1516 1514 1512 1510 1508 1505 1504 1502 1501 1501 1500 1499 1497 1496 1494 1493 1492 1490 1489 1488 1486
1572 1570 1569 1568 1567 1566 1564 1563 1561 1559 1558 1556 1555 1553 1551 1550 1548 1546 1544 1542 1540 1538 1535 1533 1531 1529 1526 1524 1522 1520 1518 1516 1514 1512 1510 1508 1506 1504 1502 1501 1500 1499 1498 1497 1496 1494 1493 1492 1490 1489 1488 1487
1572 1571 1569 1568 1567 1566 1564 1563 1561 1560 1558 1557 1555 1554 1552 1550 1548 1546 1544 1542 1540 1538 1536 1534 1531 1529 1526 1524 1522 1520 1518 1516 1514 1511 1509 1508 1506 1504 1502 1500 1499 1497 1497 1496 1495 1494 1493 1492 1491 1489 1488 1487
1572 1571 1570 1568 1567 1566 1565 1563 1561 1560 1559 1557 1556 1554 1553 1551 1549 1547 1545 1542 1540 1538 1536 1534 1532 1529 1527 1524 1522 1520 1518 1516 1514 1512 1509 1507 1506 1504 1502 1500 1498 1497 1496 1495 1495 1494 1493 1492 1491 1490 1488 1487
1572 1571 1570 1569 1567 1566 1565 1563 1562 1561 1559 1558 1556 1555 1553 1551 1549 1547 1545 1543 1540 1538 1536 1534 1532 1529 1527 1524 1522 1520 1517 1516 1514 1512 1510 1507 1505 1504 1502 1500 1498 1497 1495 1495 1495 1494 1493 1492 1491 1490 1488 1487
1572 1571 1570 1569 1567 1566 1565 1563 1562 1561 1559 1558 1557 1555 1553 1551 1549 1547 1545 1543 1541 1538 1536 1534 1532 1529 1527 1525 1522 1520 1518 1515 1513 1512 1510 1508 1505 1504 1502 1500 1499 1497 1496 1495 1494 1494 1493 1492 1491 1490 1488 1487
1572 1571 1570 1569 1568 1566 1565 1563 1562 1561 1559 1558 1557 1555 1553 1551 1549 1547 1545 1543 1541 1539 1536 1534 1532 1530 1528 1525 1523 1521 1518 1516 1514 1511 1510 1508 1505 1503 1502 1500 1499 1497 1496 1495 1494 1494 1493 1492 1490 1489 1488 1487
1572 1571 1570 1569 1567 1566 1565 1563 1562 1561 1559 1557 1556 1555 1553 1551 1549 1547 1545 1543 1541 1539 1537 1535 1533 1530 1528 1526 1523 1521 1519 1517 1515 1512 1510 1508 1506 1503 1501 1500 1499 1497 1496 1495 1494 1493 1492 1491 1490 1489 1487 1486
1571 1570 1569 1568 1567 1566 1565 1564 1562 1561 1559 1557 1555 1554 1552 1551 1549 1547 1545 1544 1542 1539 1537 1535 1533 1531 1528 1526 1524 1521 1519 1517 1514 1512 1509 1508 1506 1504 1502 1500 1498 1497 1496 1495 1493 1492 1491 1490 1489 1488 1487 1486
1570 1570 1568 1568 1567 1566 1565 1564 1562 1561 1558 1556 1555 1553 1552 1551 1549 1547 1546 1544 1542 1540 1538 1535 1533 1531 1529 1526 1524 1521 1519 1516 1514 1512 1510 1507 1506 1504 1503 1501 1499 1497 1496 1495 1493 1492 1491 1490 1488 1487 1486 1485
1569 1569 1568 1567 1566 1565 1564 1563 1562 1560 1558 1556 1554 1553 1552 1550 1549 1547 1546 1544 1542 1540 1538 1536 1533 1531 1529 1526 1524 1522 1519 1517 1515 1513 1511 1508 1506 1504 1502 1501 1499 1498 1496 1495 1494 1492 1490 1489 1488 1487 1485 1485
1569 1568 1567 1566 1566 1564 1563 1563 1561 1560 1558 1556 1553 1552 1551 1550 1549 1547 1545 1544 1542 1540 1538 1536 1533 1531 1529 1526 1524 1522 1520 1518 1515 1513 1511 1509 1507 1505 1502 1501 1499 1498 1497 1495 1494 1492 1491 1489 1488 1486 1485 1484
1568 1567 1567 1566 1565 1564 1563 1562 1561 1559 1558 1555 1553 1552 1551 1550 1549 1547 1545 1543 1541 1540 1538 1535 1533 1531 1529 1526 1524 1522 1520 1518 1515 1513 1511 1509 1507 1505 1503 1501 1500 1498 1497 1495 1494 1492 1491 1489 1487 1487 1486 1484
1568 1567 1566 1565 1564 1563 1562 1561 1560 1559 1557 1555 1553 1552 1551 1549 1548 1547 1545 1543 1541 1540 1538 1535 1533 1531 1528 1526 1524 1522 1520 1517 1515 1513 1511 1509 1507 1505 1503 1502 1500 1498 1497 1496 1494 1493 1491 1490 1488 1487 1486 1484
1567 1566 1565 1564 1563 1562 1561 1560 1559 1558 1557 1555 1554 1553 1551 1549 1548 1546 1545 1543 1541 1539 1537 1535 1533 1531 1529 1526 1524 1522 1519 1517 1515 1513 1511 1509 1507 1505 1503 1502 1500 1498 1497 1496 1494 1493 1492 1491 1489 1487 1486 1484
1566 1565 1565 1563 1563 1562 1560 1559 1558 1557 1556 1555 1554 1552 1551 1549 1547 1546 1544 1542 1541 1539 1537 1535 1533 1531 1528 1526 1524 1521 1519 1517 1515 1513 1511 1509 1507 1505 1504 1502 1501 1499 1498 1496 1494 1493 1492 1490 1489 1487 1486 1485